Location: ????????
(55.4000°N, 39.1167°E)
Time: 17:47:11
(UTC+00:00)

USA 229 DEB - Pass Details

Date: 19 May 2025
Orbit: 872 x 1339 km, 63.4° (Epoch: 17 June)

Event Time Altitude Azimuth Distance (km) Brightness Sun altitude
Exits shadow 21:33:21 18° 208° (SSW) 2,164 4.8 -14.6°
Maximum altitude 21:38:04 64° 131° (SE) 1,114 3.6 -14.5°
Drops below altitude 10° 21:44:55 10° 52° (NE) 2,961 6.7 -14.4°
Sets 21:47:46 0° 50° (NE) 3,995 7.5 -14.4°
